Orbital Elements at Epoch 2459200.5 (2020-Dec-17.0) TDB
Reference: JPL 25 (heliocentric ecliptic J2000)
Element | Value | Uncertainty (1-sigma) | Units |
e | .1353934751269368 | 7.4404e-08 | |
a | 2.535447112640004 | 1.0667e-08 | au |
q | 2.192164117059116 | 1.916e-07 | au |
i | 4.856391906670057 | 6.9332e-06 | deg |
node | 302.7979010191969 | 4.1189e-05 | deg |
peri | 28.66445515515225 | 4.4468e-05 | deg |
M | 191.9237677330094 | 1.6274e-05 | deg |
tp | 2459888.968483482658 (2022-Nov-05.46848348) | 6.8736e-05 | TDB |
period | 1474.620478522194 4.04 | 9.3063e-06 2.548e-08 | d yr |
n | .2441306120750322 | 1.5407e-09 | deg/d |
Q | 2.878730108220893 | 1.2112e-08 | au |
|
| | Orbit Determination Parameters
Additional Information
|